"Pseudo-MPEC" for P20JEyB

Created 2018 Oct 15 11:18:04 UT using Find_Orb

Click here for an explanation of pseudo-MPECs

 
 Astrometry: 
     P20JEyB  C2018 10 10[ZAstrometryH^`og,*fX7Q*(-dEU5\RC\7!n*5YeI\#/Q$P8b=JF52
     P20JEyB  C2018 10 10yHU\Us'e.==+y.,Hlu[WDq5.#m^;UUeT$tj3GKxUhoaB#GjoC%'AF52
     P20JEyB  C2018 10 10QpOTchoC4L!c=i0hg@W7[Sn(w%EGSov-XdVvbEc.?Rbt8s1sLYIwF52
     P20JEyB  C2018 10 10[%v(3k%@ICQy+vI*uredacted;U]);0nh\Nj_KeH.x9gr=1#pyrsF52
     P20JEyB |C2018 10 13]nO`+XUMCR!hlLnWN/hD[+U_!%^NyBBN\'`7w34*hvop-CM1qwp\807
     P20JEyB |C2018 10 13L+A^=vfy#MjU:$_][5RQBuX^a)51cL]IG]-dYt=7!-F;e_xFt*Rd807
     P20JEyB |C2018 10 13TAnCRWo6MhZ-bwxc^DXJ)1p#;sug'[$Ilt_Mj2;KsWHqta;R1x=[807
     P20JEyB KC2018 10 14U38N.%/%:4N,b33,yNWM_ZDYA:f,l)AHseeYv%^`*RN29jyLvxUT474
     P20JEyB KC2018 10 14K:hJtc`o0CjX`J/?bI#;w5Tg4Z=f5K8P9J40KDSpWmt@f\iiQf$_474
     P20JEyB KC2018 10 14-8@$%UPq+ig/F!sKy'uVtov;,?*]_cwlU=q4L!+2DLAj';p'Bk7p474
     P20JEyB KC2018 10 14;heG-p^m3[9hRd#%ebk0ifTp'$w#p5N1Wm2d=p1PRK?*ivcNEOCP474

Station data:
(474) Mount John Observatory, Lake Tekapo  (S43.987388 E170.464960)  New
   Zealand.  Observers A. C. Gilmore, P. M. Kilmartin. Measurer P. M.
   Kilmartin. 1.0-m f/7.7 reflector + CCD.
(807) Cerro Tololo Observatory, La Serena  (S30.169136 W70.805900)  Chile.
   1.5-m Ritchey-Chrétien.
(F52) Pan-STARRS 2, Haleakala  (N20.707384 W156.255910)  US/Hawaii.

Orbital elements:  P20JEyB
   Perihelion 2019 Feb 4.426304 +/- 1.93 TT = 10:13:52 (JD 2458518.926304)
Epoch 2018 Oct 14.0 TT = JDT 2458405.5   Earth MOID: 0.2604   AutoNEOCP
M 326.15514 +/- 1.1                 (J2000 ecliptic)
n   0.29838631 +/- 0.00523          Peri.  343.18648 +/- 0.08
a   2.21794163 +/- 0.0259           Node   100.71994 +/- 0.59
e   0.4400198 +/- 0.00791           Incl.    6.88198 +/- 0.050
P   3.30                   H 20.0   G  0.15   U  9.2  
q 1.24200337 +/- 0.00365    Q 3.19387989 +/- 0.0548
From 11 observations 2018 Oct. 10-14; mean residual 0".10
Residuals in arcseconds: 
181010 F52  .03+  .08-    181013 807  .05+  .14+    181014 474  .19+  .10-    
181010 F52  .11-  .01-    181013 807  .09-  .08-    181014 474  .24-  .14-    
181010 F52  .00   .02+    181013 807  .04+  .07-    181014 474  .02-  .10+    
181010 F52  .08+  .08+    181014 474  .07+  .15+    

Ephemerides (geocentric):
Date (UTC) HH   RA              Dec         delta   r     elong  mag " sig PA
---- -- -- --  -------------   -----------  ------ ------ -----  --- ---- ---
2018 10 15 11  23 22 50.790   -20 27 28.82  .75167 1.6407 139.1 21.6  .40  17
2018 10 15 12  23 22 48.755   -20 27 33.61  .75168 1.6405 139.0 21.6  .42  17
2018 10 15 13  23 22 46.723   -20 27 38.35  .75170 1.6403 139.0 21.6  .44  17
2018 10 15 14  23 22 44.696   -20 27 43.05  .75172 1.6400 138.9 21.6  .46  17
2018 10 15 15  23 22 42.672   -20 27 47.69  .75173 1.6398 138.9 21.6  .48  17
2018 10 15 16  23 22 40.653   -20 27 52.28  .75175 1.6396 138.8 21.6  .50  16
2018 10 15 17  23 22 38.637   -20 27 56.82  .75177 1.6393 138.8 21.6  .52  16
2018 10 15 18  23 22 36.626   -20 28 01.31  .75178 1.6391 138.8 21.6  .54  16
2018 10 15 19  23 22 34.618   -20 28 05.75  .75180 1.6389 138.7 21.6  .56  16
2018 10 15 20  23 22 32.614   -20 28 10.14  .75182 1.6386 138.7 21.6  .58  16
2018 10 15 21  23 22 30.614   -20 28 14.48  .75183 1.6384 138.6 21.6  .60  16
2018 10 15 22  23 22 28.619   -20 28 18.77  .75185 1.6382 138.6 21.6  .62  16
2018 10 15 23  23 22 26.627   -20 28 23.00  .75187 1.6379 138.5 21.6  .65  16
2018 10 16 00  23 22 24.639   -20 28 27.19  .75189 1.6377 138.5 21.6  .67  16
2018 10 16 01  23 22 22.655   -20 28 31.33  .75191 1.6375 138.4 21.6  .69  16
2018 10 16 02  23 22 20.675   -20 28 35.42  .75193 1.6373 138.4 21.6  .72  16
2018 10 16 03  23 22 18.699   -20 28 39.46  .75194 1.6370 138.4 21.6  .74  16
2018 10 16 04  23 22 16.727   -20 28 43.45  .75196 1.6368 138.3 21.6  .76  16
2018 10 16 05  23 22 14.759   -20 28 47.39  .75198 1.6366 138.3 21.6  .79  16
2018 10 16 06  23 22 12.795   -20 28 51.27  .75200 1.6363 138.2 21.6  .81  16
2018 10 16 07  23 22 10.835   -20 28 55.11  .75202 1.6361 138.2 21.6  .84  16
2018 10 16 08  23 22 08.879   -20 28 58.90  .75204 1.6359 138.1 21.6  .86  16
2018 10 16 09  23 22 06.927   -20 29 02.64  .75206 1.6356 138.1 21.6  .89  16
2018 10 16 10  23 22 04.979   -20 29 06.33  .75208 1.6354 138.0 21.6  .91  16
2018 10 16 11  23 22 03.035   -20 29 09.96  .75210 1.6352 138.0 21.6  .94  16
2018 10 16 12  23 22 01.096   -20 29 13.55  .75212 1.6350 138.0 21.6  .97  16
2018 10 16 13  23 21 59.160   -20 29 17.09  .75215 1.6347 137.9 21.6  1.0  16
2018 10 16 14  23 21 57.228   -20 29 20.58  .75217 1.6345 137.9 21.6  1.0  16
2018 10 16 15  23 21 55.301   -20 29 24.01  .75219 1.6343 137.8 21.6  1.0  16
2018 10 16 16  23 21 53.377   -20 29 27.40  .75221 1.6340 137.8 21.6  1.1  16
2018 10 16 17  23 21 51.458   -20 29 30.74  .75223 1.6338 137.7 21.6  1.1  16
2018 10 16 18  23 21 49.542   -20 29 34.02  .75226 1.6336 137.7 21.6  1.1  16
2018 10 16 19  23 21 47.631   -20 29 37.26  .75228 1.6333 137.6 21.6  1.2  16
2018 10 16 20  23 21 45.724   -20 29 40.44  .75230 1.6331 137.6 21.6  1.2  16
2018 10 16 21  23 21 43.820   -20 29 43.58  .75232 1.6329 137.6 21.6  1.2  16
2018 10 16 22  23 21 41.921   -20 29 46.67  .75235 1.6326 137.5 21.6  1.3  16
2018 10 16 23  23 21 40.026   -20 29 49.70  .75237 1.6324 137.5 21.6  1.3  16
2018 10 17 00  23 21 38.136   -20 29 52.69  .75239 1.6322 137.4 21.6  1.3  16
2018 10 17 01  23 21 36.249   -20 29 55.62  .75242 1.6320 137.4 21.6  1.3  16
2018 10 17 02  23 21 34.366   -20 29 58.51  .75244 1.6317 137.3 21.6  1.4  16
2018 10 17 03  23 21 32.488   -20 30 01.35  .75247 1.6315 137.3 21.6  1.4  16
2018 10 17 04  23 21 30.613   -20 30 04.13  .75249 1.6313 137.2 21.6  1.4  16
2018 10 17 05  23 21 28.743   -20 30 06.87  .75251 1.6310 137.2 21.6  1.5  16
2018 10 17 06  23 21 26.877   -20 30 09.55  .75254 1.6308 137.2 21.6  1.5  16
2018 10 17 07  23 21 25.015   -20 30 12.19  .75256 1.6306 137.1 21.6  1.5  16
2018 10 17 08  23 21 23.158   -20 30 14.77  .75259 1.6303 137.1 21.6  1.6  16
2018 10 17 09  23 21 21.304   -20 30 17.31  .75261 1.6301 137.0 21.6  1.6  16
2018 10 17 10  23 21 19.455   -20 30 19.79  .75264 1.6299 137.0 21.6  1.6  16